Terminal Aerodrome Forecast
Issued by NWS Charleston, WV

Current Version | Previous Version | Text Only | Print | Product List | Glossary Off
Versions: 1 2 3 4 5 6 7 8 9 10 11 12 13 14 15 16 17 18 19 20 21 22 23

000
FTUS41 KRLX 161729
TAFCRW
TAF
KCRW 161729Z 1618/1718 29009G18KT P6SM BKN025
     FM162200 30008G14KT P6SM BKN025
     FM170000 31005KT P6SM BKN025
     FM170500 34003KT P6SM SCT025
     FM170800 00000KT P6SM SCT250=

USA.gov is the U.S. government's official web portal to all federal, state and local government web resources and services.